sat.trackr.live / text

‹ back to catalog

FLOCK 4G-27

NORAD 62641 · 2025-009AJ

PAYLOAD ACTIVE UNKNOWN

§ Identity

Operator
Country
US
Launch date
2025-01-14
Launch site
AFWTR
Launch vehicle
Mass (kg)
RCS (m²)

Purposes: earth_obs

External: N2YO · Heavens-Above · Gunter

§ Orbital elements

Epoch: 2026-09-18T23:42:29.964384Z

Period
94.06 min
Inclination
97.3876°
Eccentricity
0.0001721
Mean motion
15.30941848 rev/d
Perigee alt
471.8 km
Apogee alt
474.2 km
Semi-major
6,851.1 km
B*
2.7071e-4
RAAN
342.9131°
Arg perigee
23.3305°
Mean anomaly
336.8014°
Rev number
9,324

§ Raw data

FLOCK 4G-271 62641U 25009AJ  26261.98784681  .00008017  00000+0  27071-3 0  99982 62641  97.3876 342.9131 0001721  23.3305 336.8014 15.30941848 93247

JSON: /api/v1/satellites/62641 · /tle

For live sub-satellite position, see the globe view (requires WebGL).

§ Visibility from observer

Set your observer location to see the next 7 days of passes ≥ 10°. The values pass through the URL so the page stays shareable.

No JS? Fill the form by hand. The geolocation button needs JavaScript.